Location: Launay
(47.2429°N, 1.5727°E)
Time: 04:38:18
(UTC+00:00)

Cosmos 864 Rocket - Pass Details

Date: 19 May 2025
Orbit: 953 x 990 km, 82.9° (Epoch: 13 June)

Event Time Altitude Azimuth Distance (km) Brightness Sun altitude
Rises 21:19:33 0° 351° (N) 3,688 8.7 -14.7°
Reaches altitude 10° 21:22:04 10° 352° (N) 2,741 7.8 -15.0°
Maximum altitude 21:28:23 84° 82° (E) 996 4.5 -15.6°
Enters shadow 21:32:49 21° 169° (S) 2,056 5.7 -16.0°
